Lebanon, NH

2:05 PM EST on November 15, 2019 (GMT -0500)
Lebanon Municipal

Weather History for KLEB - September, 2019

Change the Weather History Date:

Friday, September 20, 2019

  Actual Average Record
Temperature  
Mean Temperature 58 °F -  
Max Temperature 80 °F 70 °F 90 °F (1985)
Min Temperature 37 °F 47 °F 28 °F (1929)
Degree Days  
Heating Degree Days 6    
Growing Degree Days 8 (Base 50)    
Moisture  
Dew Point 43 °F    
Average Humidity 75    
Maximum Humidity 90    
Minimum Humidity 35    
Precipitation  
Precipitation 0.00 in - - ()
Sea Level Pressure  
Sea Level Pressure 30.20 in    
Wind  
Wind Speed 0 mph (NE)    
Max Wind Speed 5 mph    
Max Gust Speed -    
Visibility 7 miles    
Events Fog    
Averages and records for this station are not official NWS values.
T = Trace of Precipitation, MM = Missing Value Source: NWS Daily Summary

Daily Weather History Graph

Daily Weather History Graph

Search for Another Location

Airport or City:

Astronomy

Sep. 20, 2019 Rise Set
Actual Time 6:33 AM EDT 6:50 PM EDT
Civil Twilight 6:05 AM EDT 7:19 PM EDT
Nautical Twilight 5:31 AM EDT 7:52 PM EDT
Astronomical Twilight 4:56 AM EDT 8:27 PM EDT
Moon 10:27 PM EDT (9/20) 12:46 PM EDT (9/20)
Length of Visible Light 13h 14m
Length of Day
12h 16m
Waning Gibbous, 65% of the Moon is Illuminated
Sep 20
Waning Gibbous
Sep 21
Last Quarter
Sep 28
New
Oct 5
First Quarter
Oct 13
Full

Hourly Weather History & Observations

Time (EDT) Temp. Windchill Dew Point Humidity Pressure Visibility Wind Dir Wind Speed Gust Speed Precip Events Conditions
12:53 AM 41.0 °F - 36.0 °F 82% 30.25 in 10.0 mi Calm Calm - N/A   Clear
1:15 AM 39.9 °F - 36.0 °F 86% 30.25 in 10.0 mi Calm Calm - N/A   Partly Cloudy
1:53 AM 39.9 °F - 35.1 °F 83% 30.25 in 10.0 mi Calm Calm - N/A   Clear
2:15 AM 39.0 °F - 35.1 °F 86% 30.24 in 9.0 mi Calm Calm - N/A   Scattered Clouds
2:33 AM 39.0 °F - 35.1 °F 86% 30.24 in 9.0 mi Calm Calm - N/A   Mostly Cloudy
2:53 AM 39.9 °F - 35.1 °F 83% 30.23 in 10.0 mi Calm Calm - N/A   Mostly Cloudy
3:13 AM 39.0 °F - 35.1 °F 86% 30.23 in 10.0 mi Calm Calm - N/A   Scattered Clouds
3:29 AM 37.9 °F - 35.1 °F 89% 30.23 in 10.0 mi Calm Calm - N/A   Mostly Cloudy
3:53 AM 39.9 °F - 36.0 °F 86% 30.23 in 10.0 mi Calm Calm - N/A   Overcast
4:36 AM 42.1 °F - 37.9 °F 85% 30.23 in 1.5 mi Calm Calm - N/A   Overcast
4:45 AM 42.1 °F - 39.0 °F 89% 30.23 in 0.5 mi Calm Calm - N/A Fog Fog
4:53 AM 42.1 °F - 39.0 °F 89% 30.23 in 0.2 mi Calm Calm - N/A Fog Fog
5:53 AM 43.0 °F - 39.9 °F 89% 30.24 in 0.2 mi Calm Calm - N/A Fog Fog
6:53 AM 43.0 °F 41.3 °F 39.9 °F 89% 30.25 in 0.2 mi ENE 3.5 mph - N/A Fog Fog
7:53 AM 44.1 °F 42.5 °F 39.9 °F 85% 30.27 in 0.2 mi North 3.5 mph - N/A Fog Fog
8:49 AM 44.6 °F - 41.0 °F 87% 30.26 in 0.8 mi Calm Calm - N/A   Mist
8:53 AM 45.0 °F - 42.1 °F 90% 30.27 in 1.2 mi Calm Calm - N/A   Overcast
9:31 AM 46.9 °F - 43.0 °F 86% 30.26 in 6.0 mi Calm Calm - N/A   Scattered Clouds
9:53 AM 48.9 °F - 44.1 °F 83% 30.26 in 6.0 mi Calm Calm - N/A   Scattered Clouds
10:53 AM 57.9 °F - 45.0 °F 62% 30.23 in 10.0 mi Calm Calm - N/A   Clear
11:53 AM 64.9 °F - 46.9 °F 52% 30.20 in 10.0 mi Variable 3.5 mph - N/A   Clear
12:53 PM 71.1 °F - 48.0 °F 44% 30.17 in 10.0 mi Calm Calm - N/A   Clear
1:53 PM 75.0 °F - 50.0 °F 41% 30.14 in 10.0 mi North 3.5 mph - N/A   Clear
2:53 PM 75.9 °F - 50.0 °F 40% 30.11 in 10.0 mi Calm Calm - N/A   Clear
3:53 PM 79.0 °F - 48.9 °F 35% 30.09 in 10.0 mi Calm Calm - N/A   Clear
4:53 PM 80.1 °F - 52.0 °F 38% 30.09 in 10.0 mi Variable 4.6 mph - N/A   Clear
5:53 PM 75.0 °F - 55.9 °F 51% 30.10 in 10.0 mi Calm Calm - N/A   Clear
6:53 PM 64.0 °F - 55.0 °F 73% 30.12 in 10.0 mi Calm Calm - N/A   Clear
7:53 PM 57.9 °F - 52.0 °F 81% 30.14 in 10.0 mi SSE 3.5 mph - N/A   Clear
8:53 PM 55.9 °F - 50.0 °F 80% 30.15 in 10.0 mi Calm Calm - N/A   Clear
9:53 PM 53.1 °F - 48.9 °F 86% 30.16 in 10.0 mi Calm Calm - N/A   Clear
10:53 PM 52.0 °F - 46.9 °F 83% 30.16 in 10.0 mi Calm Calm - N/A   Clear
11:53 PM 51.1 °F - 46.9 °F 86% 30.16 in 10.0 mi Calm Calm - N/A   Clear